LUCH 5B (SDCM/PRN 125)

Last updated on Nov. 14, 2019, 4:22 a.m. UTC

1 38977U 12061A   19316.61421650 -.00000123  00000-0  00000-0 0  9996
2 38977   5.2993  68.9569 0003803 209.6333 337.8330  1.00235148 26028
UTC
Height (km)
Latitude
Longitude
Inclination
Orbital Period
UTC large
Height (km)
Speed (km/s)
/
Latitude / Longitude
Inclination (degrees)
Orbital Period (minutes)
Azimuth
Elevation
Range (km)
Doppler Factor
iOS Compass Heading
iOS Angle

Next 30 passes for location: Hong Kong

Rise time Rise Azimuth (degrees) Set time Set Azimuth (degrees) Duration Max altitude (degrees)

No matching passes for this satellites